FW5910 Weather Reports


time (UTC)temp
C
wind
direction
speed
KPH
gust
KPH
rain 1hr
cm
rain 24hr
cm
rain mn
cm
humidity
%
barometer
mb
20260905005005 16 0 0.0 0.0 0.00 0.28 0.28 52 1015.3
20260905004005 16 0 0.0 0.0 0.00 0.28 0.28 51 1015.4
20260905003502 16 0 0.0 0.0 0.00 0.28 0.28 50 1015.3
20260905003001 16 0 0.0 0.0 0.00 0.28 0.28 50 1015.2
20260905002504 16 0 0.0 0.0 0.00 0.28 0.28 50 1015.3
20260905002001 17 0 0.0 0.0 0.00 0.28 0.28 49 1015.2
20260905001458 17 0 0.0 0.0 0.00 0.28 0.28 48 1015.1
20260905000952 17 0 0.0 0.0 0.00 0.28 0.28 48 1014.8
20260905000449 17 0 0.0 0.0 0.00 0.28 0.28 47 1014.8
20260904235950 17 221 0.0 0.0 0.00 0.28 0.28 46 1014.9
20260904235448 17 221 0.0 0.0 0.00 0.28 0.28 44 1014.9
20260904234947 17 221 0.0 0.0 0.00 0.28 0.28 43 1014.9
20260904234447 17 220 0.0 0.0 0.00 0.28 0.28 45 1015.0
20260904233444 17 220 0.0 0.0 0.00 0.28 0.28 44 1014.9
20260904232942 17 220 0.0 0.0 0.00 0.28 0.28 45 1014.8
20260904232440 17 220 0.0 0.0 0.00 0.28 0.28 43 1014.9
20260904231937 17 220 0.0 0.0 0.00 0.28 0.28 43 1014.9
20260904230935 17 220 0.0 0.0 0.00 0.28 0.28 45 1015.0
20260904230432 17 0 0.0 0.0 0.00 0.28 0.28 45 1015.0
20260904225929 17 0 0.0 0.0 0.00 0.28 0.28 45 1015.2
20260904225429 17 0 0.0 1.6 0.00 0.28 0.28 46 1015.1
20260904224929 17 0 0.0 1.6 0.00 0.28 0.28 44 1015.1
20260904224429 17 0 0.0 0.0 0.00 0.28 0.28 45 1015.1
20260904223930 17 117 0.0 0.0 0.00 0.28 0.28 44 1015.0
20260904222929 17 142 1.6 6.4 0.00 0.28 0.28 47 1015.1
20260904221921 16 160 1.6 6.4 0.00 0.28 0.28 46 1015.1
20260904221416 16 168 1.6 6.4 0.00 0.28 0.28 46 1015.0
20260904220910 16 173 1.6 3.2 0.00 0.28 0.28 47 1014.9
20260904220403 16 171 1.6 4.8 0.00 0.28 0.28 46 1014.9
20260904215903 16 0 1.6 6.4 0.00 0.28 0.28 48 1015.0
20260904215404 16 161 1.6 6.4 0.00 0.28 0.28 49 1015.0
20260904214905 16 148 1.6 6.4 0.00 0.28 0.28 48 1015.1
20260904214404 16 219 1.6 8.0 0.00 0.28 0.28 49 1015.2
20260904213402 17 209 1.6 6.4 0.00 0.28 0.28 53 1015.3
20260904212903 17 199 1.6 9.7 0.00 0.28 0.28 57 1015.3
20260904212404 17 200 3.2 9.7 0.00 0.28 0.28 57 1015.1
20260904211903 16 263 3.2 11.3 0.00 0.28 0.28 57 1015.2
20260904211406 16 278 3.2 11.3 0.00 0.28 0.28 59 1015.2
20260904210903 16 135 4.8 11.3 0.00 0.28 0.28 61 1015.2
20260904210403 16 173 3.2 9.7 0.00 0.28 0.28 63 1015.1
20260904204402 16 0 0.0 4.8 0.00 0.28 0.28 67 1014.8
20260904203903 15 126 0.0 1.6 0.00 0.28 0.28 70 1014.8
20260904203400 15 128 1.6 4.8 0.00 0.28 0.28 71 1014.8
20260904202852 14 126 3.2 6.4 0.00 0.28 0.28 73 1014.9
20260904202346 14 0 1.6 6.4 0.00 0.28 0.28 74 1014.9
20260904201841 14 0 0.0 6.4 0.00 0.28 0.28 71 1014.9
20260904201334 14 174 0.0 0.0 0.00 0.28 0.28 71 1015.0
20260904200838 14 175 0.0 0.0 0.00 0.28 0.28 73 1015.0
20260904200332 14 0 0.0 0.0 0.00 0.28 0.28 73 1015.1
20260904195831 14 0 0.0 0.0 0.00 0.28 0.28 72 1015.0
20260904195331 14 86 0.0 0.0 0.00 0.28 0.28 72 1014.9
20260904194830 13 98 1.6 6.4 0.00 0.28 0.28 74 1014.9
20260904194332 13 0 1.6 6.4 0.00 0.28 0.28 74 1015.0
20260904193332 13 0 0.0 3.2 0.00 0.28 0.28 76 1015.0
20260904192831 13 0 0.0 3.2 0.00 0.28 0.28 78 1015.0
20260904192333 13 0 1.6 3.2 0.00 0.28 0.28 78 1015.0
20260904191833 12 0 1.6 4.8 0.00 0.28 0.28 78 1015.1
20260904191330 12 0 1.6 4.8 0.00 0.28 0.28 79 1015.1
20260904190830 12 0 1.6 4.8 0.00 0.28 0.28 79 1015.2
20260904190331 12 0 0.0 3.2 0.00 0.28 0.28 80 1015.0
20260904185830 12 0 0.0 1.6 0.00 0.28 0.28 80 1015.0
20260904185331 12 0 0.0 3.2 0.00 0.28 0.28 80 1015.0
20260904184832 12 0 0.0 3.2 0.00 0.28 0.28 80 1015.0
20260904184332 12 0 0.0 3.2 0.00 0.28 0.28 80 1014.9
20260904183319 11 0 0.0 3.2 0.00 0.38 0.28 80 1014.9
20260904182817 11 0 0.0 3.2 0.00 0.53 0.28 81 1014.8
20260904182320 11 0 0.0 3.2 0.00 0.53 0.28 81 1014.8
20260904181817 11 0 0.0 0.0 0.00 0.53 0.28 81 1014.8
20260904181317 11 107 0.0 0.0 0.00 0.53 0.28 81 1014.9
20260904180314 11 107 1.6 4.8 0.00 0.56 0.28 81 1014.9
20260904175312 11 92 3.2 6.4 0.00 0.58 0.28 82 1014.8
20260904174812 11 0 1.6 6.4 0.00 0.58 0.28 82 1014.6
20260904173812 11 29 0.0 0.0 0.00 0.58 0.28 82 1014.5
20260904172809 10 29 0.0 4.8 0.00 0.58 0.28 83 1014.4
20260904172307 10 33 0.0 4.8 0.00 0.58 0.28 82 1014.2
20260904171806 10 44 0.0 3.2 0.00 0.58 0.28 83 1014.2
20260904170808 10 44 0.0 0.0 0.00 0.58 0.28 82 1014.0
20260904170305 10 44 0.0 1.6 0.00 0.58 0.28 83 1013.9
20260904165808 10 44 0.0 3.2 0.00 0.58 0.28 83 1013.9
20260904165305 10 44 0.0 3.2 0.00 0.58 0.28 82 1013.8
20260904164808 10 71 0.0 3.2 0.00 0.58 0.28 83 1013.8
20260904164308 10 349 1.6 4.8 0.00 0.58 0.28 83 1013.7
20260904163805 10 349 1.6 4.8 0.00 0.58 0.28 83 1013.7
20260904163309 10 355 1.6 4.8 0.00 0.58 0.28 83 1013.6
20260904162808 10 0 1.6 4.8 0.00 0.58 0.28 83 1013.6
20260904162307 10 347 0.0 4.8 0.00 0.58 0.28 83 1013.3
20260904161804 10 349 1.6 4.8 0.00 0.58 0.28 83 1013.3
20260904161306 9 11 1.6 4.8 0.00 0.58 0.28 84 1013.3
20260904160805 9 74 1.6 4.8 0.03 0.58 0.28 84 1013.2
20260904155805 9 339 1.6 6.4 0.03 0.56 0.28 84 1013.0
20260904155307 9 341 1.6 6.4 0.03 0.56 0.28 84 1013.0
20260904154807 9 340 1.6 4.8 0.05 0.56 0.28 84 1012.9
20260904153303 9 334 1.6 6.4 0.13 0.56 0.28 84 1012.8
20260904152758 9 339 3.2 4.8 0.13 0.56 0.28 84 1012.7
20260904152252 9 341 3.2 6.4 0.15 0.58 0.28 84 1012.8
20260904151745 9 345 3.2 6.4 0.18 0.58 0.28 84 1012.9
20260904151243 9 346 1.6 6.4 0.18 0.58 0.28 84 1012.9
20260904150238 9 355 1.6 6.4 0.18 0.58 0.25 84 1012.9
20260904145740 9 325 1.6 6.4 0.18 0.41 0.25 84 1012.9
20260904145238 9 338 1.6 4.8 0.20 0.41 0.25 84 1012.9
20260904144738 9 339 0.0 3.2 0.18 0.41 0.23 84 1012.9
20260904144238 9 339 0.0 0.0 0.15 0.41 0.20 84 1012.8
20260904143734 10 338 0.0 0.0 0.13 0.41 0.15 84 1012.8
20260904143236 10 338 0.0 0.0 0.10 0.41 0.15 84 1012.7
20260904142733 10 338 0.0 0.0 0.10 0.41 0.15 83 1012.5
20260904142233 10 340 0.0 1.6 0.10 0.41 0.13 83 1012.2
20260904141731 10 340 0.0 1.6 0.08 0.41 0.10 83 1012.2
20260904141232 10 340 0.0 1.6 0.08 0.41 0.10 83 1012.1
20260904140730 10 339 0.0 1.6 0.05 0.41 0.08 83 1011.9
20260904140232 10 340 0.0 1.6 0.05 0.41 0.08 83 1011.9
20260904135730 10 339 0.0 4.8 0.05 0.36 0.05 83 1011.7
20260904135236 10 339 1.6 4.8 0.03 0.36 0.05 82 1011.6
20260904134730 10 339 1.6 4.8 0.03 0.36 0.05 82 1011.6
20260904134232 10 316 0.0 4.8 0.03 0.38 0.05 81 1011.5
20260904133730 10 213 0.0 4.8 0.03 0.38 0.05 81 1011.4
20260904133233 10 213 1.6 4.8 0.03 0.38 0.05 80 1011.4
20260904132730 10 213 3.2 8.0 0.05 0.38 0.05 79 1011.4
20260904132234 10 213 1.6 8.0 0.03 0.41 0.03 79 1011.3
20260904131731 10 217 1.6 4.8 0.03 0.41 0.03 80 1011.2
20260904131231 10 217 1.6 4.8 0.03 0.41 0.03 80 1011.0
20260904130232 11 217 1.6 4.8 0.03 0.41 0.03 81 1010.9
20260904125736 11 214 1.6 4.8 0.03 0.38 0.03 81 1010.8
20260904125235 11 215 1.6 4.8 0.03 0.38 0.03 80 1010.8
20260904124733 11 211 1.6 4.8 0.03 0.38 0.03 81 1010.7
20260904124235 11 213 1.6 4.8 0.03 0.38 0.03 80 1010.5
20260904123737 11 221 1.6 3.2 0.03 0.38 0.03 79 1010.5
20260904123235 11 222 1.6 3.2 0.03 0.38 0.03 78 1010.5
20260904122733 11 0 1.6 3.2 0.00 0.41 0.00 78 1010.4
20260904122234 11 0 1.6 4.8 0.00 0.41 0.00 76 1010.3
20260904121732 11 0 3.2 6.4 0.00 0.41 0.00 76 1010.4
20260904121236 12 0 4.8 12.9 0.00 0.41 0.00 73 1010.3
20260904120734 11 131 6.4 12.9 0.00 0.41 0.00 73 1010.4
20260904120237 11 122 3.2 9.7 0.00 0.41 0.00 79 1010.4
20260904115733 10 126 3.2 9.7 0.00 0.41 0.00 80 1010.9
20260904114735 10 221 3.2 8.0 0.00 0.41 0.00 78 1011.2
20260904114236 10 223 4.8 11.3 0.00 0.41 0.00 77 1010.9
20260904113737 10 222 1.6 11.3 0.00 0.41 0.00 78 1010.6
20260904113234 10 190 0.0 4.8 0.00 0.41 0.00 80 1010.2
20260904112732 10 221 1.6 8.0 0.00 0.41 0.00 79 1010.1
20260904112234 10 217 4.8 9.7 0.00 0.41 0.00 78 1009.4
20260904111732 10 219 6.4 11.3 0.00 0.41 0.00 78 1009.2
20260904111237 10 229 4.8 11.3 0.00 0.41 0.00 77 1008.9
20260904110235 10 211 4.8 8.0 0.00 0.41 0.00 78 1009.0
20260904105739 10 255 4.8 11.3 0.00 0.41 0.00 79 1009.0
20260904105237 10 243 4.8 12.9 0.00 0.41 0.00 80 1009.1
20260904104735 10 126 3.2 12.9 0.00 0.41 0.00 82 1009.3
20260904104238 10 191 0.0 6.4 0.00 0.41 0.00 82 1009.0
20260904102731 10 236 4.8 12.9 0.00 0.41 0.00 80 1007.2
20260904102232 10 207 4.8 12.9 0.00 0.41 0.00 80 1007.4
20260904101235 9 223 1.6 8.0 0.00 0.41 0.00 81 1007.9
20260904100730 9 167 1.6 6.4 0.00 0.41 0.00 82 1007.5
20260904100232 9 202 0.0 4.8 0.00 0.41 0.00 82 1007.2
20260904095234 9 244 0.0 0.0 0.00 0.41 0.00 82 1006.7
20260904094730 9 245 0.0 0.0 0.00 0.41 0.00 82 1006.3
20260904094232 9 245 0.0 0.0 0.00 0.41 0.00 83 1006.2
20260904093733 9 244 0.0 0.0 0.00 0.41 0.00 83 1006.2
20260904093233 8 244 0.0 1.6 0.00 0.41 0.00 83 1006.5
20260904092731 8 244 0.0 1.6 0.00 0.41 0.00 82 1006.5
20260904091733 8 245 3.2 4.8 0.00 0.41 0.00 82 1006.3
20260904091232 9 245 3.2 6.4 0.00 0.41 0.00 82 1006.2
20260904090235 9 244 3.2 6.4 0.00 0.41 0.00 81 1006.3
20260904085731 10 244 1.6 8.0 0.00 0.41 0.00 81 1006.5
20260904085232 10 236 1.6 8.0 0.00 0.41 0.00 81 1006.3
20260904084730 10 211 1.6 8.0 0.00 0.41 0.00 81 1006.6
20260904084233 9 213 1.6 4.8 0.00 0.41 0.00 82 1006.7
20260904083730 9 221 1.6 4.8 0.00 0.41 0.00 81 1006.7
20260904083232 10 225 1.6 4.8 0.00 0.41 0.00 81 1006.8
20260904082731 10 225 0.0 4.8 0.00 0.41 0.00 81 1006.7
20260904082235 10 224 1.6 4.8 0.00 0.41 0.00 81 1006.7
20260904081730 10 224 1.6 4.8 0.00 0.41 0.00 81 1006.7
20260904081232 9 223 0.0 3.2 0.00 0.41 0.00 81 1006.8
20260904080730 9 223 1.6 6.4 0.00 0.41 0.00 81 1006.9
20260904080232 9 223 3.2 6.4 0.00 0.41 0.00 82 1006.9
20260904075731 9 217 3.2 6.4 0.00 0.41 0.00 82 1007.0
20260904075238 9 211 1.6 6.4 0.00 0.41 0.00 82 1006.9
20260904074733 9 207 0.0 6.4 0.00 0.41 0.00 80 1007.1
20260904074234 9 327 0.0 0.0 0.00 0.41 0.00 80 1007.0
20260904072232 10 328 0.0 0.0 0.00 0.41 0.00 81 1006.9
20260904071730 10 328 0.0 0.0 0.00 0.41 0.00 80 1007.0
20260904071231 10 328 0.0 0.0 0.00 0.41 0.00 80 1007.0
20260904070730 10 328 0.0 0.0 0.00 0.41 0.00 81 1006.9
20260904070232 10 328 0.0 0.0 0.00 0.41 0.00 81 1007.0
20260904065232 10 329 0.0 0.0 0.00 0.41 0.00 80 1006.9
20260904064730 10 329 0.0 3.2 0.00 0.41 0.00 81 1007.0
20260904063236 10 328 1.6 6.4 0.00 0.41 0.00 80 1007.1
20260904062731 10 327 3.2 6.4 0.00 0.41 0.00 80 1007.2
20260904062232 11 335 3.2 6.4 0.00 0.41 0.00 81 1007.0
20260904061730 10 332 1.6 6.4 0.00 0.41 0.00 81 1007.1
20260904061233 10 39 1.6 4.8 0.00 0.41 0.00 82 1007.2
20260904060729 10 332 3.2 6.4 0.00 0.41 0.00 81 1007.5
20260904060234 10 332 3.2 6.4 0.00 0.41 0.00 82 1007.5
20260904055731 10 331 3.2 6.4 0.00 0.41 0.41 82 1007.5
20260904054730 10 327 1.6 4.8 0.00 0.41 0.41 81 1007.8
20260904054233 10 327 3.2 4.8 0.00 0.41 0.41 81 1007.8
20260904053232 11 341 0.0 4.8 0.00 0.41 0.41 80 1007.9
20260904052731 11 338 1.6 4.8 0.00 0.41 0.41 80 1008.1
20260904051730 11 0 0.0 4.8 0.00 0.41 0.41 79 1008.2
20260904051233 11 338 1.6 3.2 0.00 0.41 0.41 79 1008.3
20260904050732 11 338 1.6 4.8 0.00 0.41 0.41 79 1008.2
20260904050232 11 338 1.6 6.4 0.00 0.41 0.41 79 1008.3
20260904045734 11 0 1.6 6.4 0.00 0.41 0.41 79 1008.3
20260904045234 11 336 0.0 0.0 0.00 0.41 0.41 77 1008.4
20260904044232 12 336 0.0 0.0 0.00 0.41 0.41 75 1008.6